User: anonymous   Login
Location: Lecco
(45.8566°N, 9.3977°E)
Time: 12:25:48
(UTC+02:00)
Language:

Courier 1B - Orbit

View from above orbital plane
View from above orbital plane
View from above satellite
View from above satellite

Ground track
Ground track

The orbit data is extracted from the following two-line orbital elements,

1    58U 60013A   20220.14408810  .00000079  00000-0 -89888-5 0  9998
2    58  28.3253 197.4635 0165085 128.9336 232.6049 13.46323227945984
Epoch (UTC): 07 August 2020 03:27:29
Eccentricity: 0.0165085
inclination: 28.3253°
perigee height: 962 km
apogee height: 1209 km
right ascension of ascending node: 197.4635°
argument of perigee: 128.9336°
revolutions per day: 13.46323227
mean anomaly at epoch: 232.6049°
orbit number at epoch: 94598

The dashed part of the orbit path shows where the satellite is in the earth's shadow,  

DLR